Location: St Paul
(44.9440°N, 93.0930°W)
Time: 18:41:50
(UTC-06:00)

ISS - Visible Passes

Search period start: 16 December 2017 00:00
Search period end: 26 December 2017 00:00
Orbit: 402 x 406 km, 51.6° (Epoch: 17 December)

Date Brightness Start Highest point End Pass type
(mag) Time Alt. Az. Time Alt. Az. Time Alt. Az.
16 Dec -1.6 17:49:32 10° W 17:52:22 27° SW 17:55:11 10° SSE visible
18 Dec -0.4 17:42:31 10° WSW 17:43:59 12° SW 17:45:27 10° SSW visible
25 Dec -0.6 06:45:47 10° S 06:47:45 15° SE 06:49:42 10° E visible
